User: anonymous
Location: Wildcat Hills Observatory
(41.6350°N, 103.6812°W)
Time: 21:33:57
(UTC-06:00)
Language:

Cosmos 1634 Rocket - Orbit

View from above orbital plane
View from above orbital plane
View from above satellite
View from above satellite

Ground track
Ground track

The orbit data is extracted from the following two-line orbital elements,

1 15598U 85022B   14233.91281384  .00000068  00000-0  53432-4 0  7076
2 15598 082.9403 152.8693 0023628 109.6579 319.1664 13.76488866478723
Epoch (UTC): 21 August 2014 21:54:27
Eccentricity: 0.0023628
inclination: 82.9403°
perigee height: 959 km
apogee height: 994 km
right ascension of ascending node: 152.8693°
argument of perigee: 109.6579°
revolutions per day: 13.76488866
mean anomaly at epoch: 319.1664°
orbit number at epoch: 47872

The dashed part of the orbit path shows where the satellite is in the earth's shadow,  

DLR